• In Hungary
  • List of Countries
  • For 7 days
  • Water Temperature
  • Satellite Maps
  • Weather Map
  • News
  • Weather Widgets
  • user-avatar
    Login

    Hourly Weather Puerto Limón

    Today, 22 May, Tuesday

    Time Temperature Precipitation Wind Pressure Humidity
    00:00 +28°C° 0.4 mm 2 mps 756 mmHg 88%
    01:00 +28°C° 0.2 mm 1 mps 756 mmHg 87%
    02:00 +28°C° 0.2 mm 1 mps 756 mmHg 86%
    03:00 +28°C° 0.2 mm 1 mps 755 mmHg 85%
    04:00 +28°C° 0.1 mm 1 mps 756 mmHg 85%
    05:00 +28°C° 0.1 mm 1 mps 756 mmHg 84%
    06:00 +28°C° 0.1 mm 1 mps 756 mmHg 83%
    07:00 +30°C° 0.2 mm 1 mps 757 mmHg 76%
    08:00 +32°C° 0.2 mm 1 mps 757 mmHg 68%
    09:00 +34°C° 0.2 mm 1 mps 757 mmHg 60%
    10:00 +34°C° 0.2 mm 1 mps 757 mmHg 58%
    11:00 +36°C° 0.2 mm 2 mps 757 mmHg 56%
    12:00 +36°C° 0.2 mm 2 mps 756 mmHg 53%
    13:00 +36°C° 0.4 mm 2 mps 756 mmHg 56%
    14:00 +35°C° 0.4 mm 2 mps 755 mmHg 59%
    15:00 +34°C° 0.4 mm 2 mps 755 mmHg 63%
    16:00 +32°C° 0.9 mm 2 mps 755 mmHg 70%
    17:00 +30°C° 0.9 mm 2 mps 755 mmHg 76%
    18:00 +29°C° 0.9 mm 1 mps 756 mmHg 83%
    19:00 +29°C° 0.6 mm 1 mps 756 mmHg 84%
    20:00 +29°C° 0.6 mm 1 mps 757 mmHg 84%
    21:00 +28°C° 0.6 mm 1 mps 757 mmHg 85%
    22:00 +28°C° 0.2 mm 1 mps 757 mmHg 84%
    23:00 +28°C° 0.2 mm 1 mps 757 mmHg 83%

    Tomorrow, 23 May, Wednesday

    Time Temperature Precipitation Wind Pressure Humidity
    00:00 +28°C° 0.2 mm 1 mps 757 mmHg 83%
    01:00 +28°C° 0.2 mm 1 mps 757 mmHg 83%
    02:00 +28°C° 0.2 mm 1 mps 756 mmHg 82%
    03:00 +28°C° 0.2 mm 1 mps 756 mmHg 82%
    04:00 +28°C° 0.2 mm 1 mps 756 mmHg 81%
    05:00 +28°C° 0.2 mm 1 mps 757 mmHg 80%
    06:00 +28°C° 0.2 mm 1 mps 757 mmHg 79%
    07:00 +29°C° 0.1 mm 1 mps 757 mmHg 74%
    08:00 +30°C° 0.1 mm 1 mps 758 mmHg 68%
    09:00 +30°C° 0.1 mm 0 mps 758 mmHg 62%
    10:00 +33°C° 0.1 mm 1 mps 758 mmHg 61%
    11:00 +33°C° 0.1 mm 1 mps 758 mmHg 60%
    12:00 +35°C° 0.1 mm 2 mps 757 mmHg 59%
    13:00 +34°C° 0.3 mm 2 mps 757 mmHg 61%
    14:00 +34°C° 0.3 mm 2 mps 756 mmHg 64%
    15:00 +32°C° 0.3 mm 2 mps 756 mmHg 67%
    16:00 +31°C° 0.3 mm 2 mps 756 mmHg 73%
    17:00 +30°C° 0.3 mm 2 mps 756 mmHg 78%
    18:00 +29°C° 0.3 mm 1 mps 756 mmHg 84%
    19:00 +29°C° 0.3 mm 1 mps 757 mmHg 84%
    20:00 +28°C° 0.3 mm 1 mps 758 mmHg 85%
    21:00 +28°C° 0.3 mm 1 mps 758 mmHg 85%
    22:00 +28°C° 0.1 mm 1 mps 758 mmHg 84%
    23:00 +26°C° 0.1 mm 0 mps 758 mmHg 83%

    Day after tomorrow, 24 May, Thursday

    Time Temperature Precipitation Wind Pressure Humidity
    00:00 +26°C° 0.1 mm 0 mps 758 mmHg 83%
    01:00 +26°C° 0.1 mm 0 mps 757 mmHg 83%
    02:00 +26°C° 0.1 mm 0 mps 757 mmHg 84%
    03:00 +27°C° 0.1 mm 1 mps 757 mmHg 84%
    04:00 +28°C° 0.2 mm 1 mps 757 mmHg 83%
    05:00 +28°C° 0.2 mm 1 mps 757 mmHg 82%
    06:00 +28°C° 0.2 mm 1 mps 757 mmHg 81%
    07:00 +30°C° 0.1 mm 1 mps 758 mmHg 74%
    08:00 +32°C° 0.1 mm 1 mps 758 mmHg 67%
    09:00 +34°C° 0.1 mm 1 mps 758 mmHg 60%
    10:00 +34°C° 0.2 mm 1 mps 758 mmHg 59%
    11:00 +36°C° 0.2 mm 2 mps 758 mmHg 59%
    12:00 +36°C° 0.2 mm 2 mps 757 mmHg 58%
    13:00 +35°C° 0.6 mm 2 mps 757 mmHg 63%
    14:00 +34°C° 0.6 mm 3 mps 756 mmHg 68%
    15:00 +33°C° 0.6 mm 3 mps 755 mmHg 73%
    16:00 +31°C° 1.3 mm 2 mps 756 mmHg 79%
    17:00 +30°C° 1.3 mm 2 mps 756 mmHg 85%
    18:00 +29°C° 1.3 mm 2 mps 756 mmHg 91%
    19:00 +29°C° 2 mm 1 mps 757 mmHg 91%
    20:00 +28°C° 2 mm 1 mps 758 mmHg 92%
    21:00 +28°C° 2 mm 1 mps 758 mmHg 92%
    22:00 +28°C° 1.1 mm 1 mps 758 mmHg 92%
    23:00 +28°C° 1.1 mm 2 mps 758 mmHg 91%

    25 May, Friday

    Time Temperature Precipitation Wind Pressure Humidity
    00:00 +28°C° 1.1 mm 2 mps 757 mmHg 91%
    01:00 +28°C° 0.2 mm 1 mps 757 mmHg 90%
    02:00 +28°C° 0.2 mm 1 mps 757 mmHg 90%
    03:00 +28°C° 0.2 mm 1 mps 756 mmHg 89%
    04:00 +28°C° 0.2 mm 1 mps 756 mmHg 89%
    05:00 +28°C° 0.2 mm 1 mps 757 mmHg 88%
    06:00 +28°C° 0.2 mm 1 mps 757 mmHg 87%
    07:00 +30°C° 0.1 mm 1 mps 757 mmHg 81%
    08:00 +31°C° 0.1 mm 1 mps 757 mmHg 75%
    09:00 +31°C° 0.1 mm 0 mps 758 mmHg 69%
    10:00 +34°C° 0.1 mm 1 mps 757 mmHg 65%
    11:00 +35°C° 0.1 mm 1 mps 756 mmHg 61%
    12:00 +36°C° 0.1 mm 2 mps 756 mmHg 57%
    13:00 +36°C° 0.2 mm 2 mps 755 mmHg 60%
    14:00 +35°C° 0.2 mm 2 mps 755 mmHg 63%
    15:00 +35°C° 0.2 mm 3 mps 754 mmHg 65%
    16:00 +32°C° 0.3 mm 2 mps 755 mmHg 72%
    17:00 +31°C° 0.3 mm 2 mps 755 mmHg 80%
    18:00 +29°C° 0.3 mm 2 mps 755 mmHg 87%
    19:00 +29°C° 1.3 mm 1 mps 756 mmHg 88%
    20:00 +29°C° 1.3 mm 1 mps 756 mmHg 88%
    21:00 +29°C° 1.3 mm 1 mps 757 mmHg 89%
    22:00 +28°C° 0.7 mm 1 mps 757 mmHg 89%
    23:00 +28°C° 0.7 mm 1 mps 756 mmHg 89%

    26 May, Saturday

    Time Temperature Precipitation Wind Pressure Humidity
    00:00 +28°C° 0.7 mm 1 mps 756 mmHg 89%
    01:00 +28°C° 0.3 mm 1 mps 756 mmHg 89%
    02:00 +28°C° 0.3 mm 1 mps 755 mmHg 88%
    03:00 +28°C° 0.3 mm 1 mps 755 mmHg 88%
    04:00 +28°C° 0.1 mm 1 mps 755 mmHg 87%
    05:00 +28°C° 0.1 mm 1 mps 755 mmHg 86%
    06:00 +28°C° 0.1 mm 1 mps 756 mmHg 85%
    07:00 +30°C° 0.1 mm 1 mps 756 mmHg 77%
    08:00 +32°C° 0.1 mm 1 mps 756 mmHg 70%
    09:00 +34°C° 0.1 mm 1 mps 756 mmHg 62%
    10:00 +35°C° 0.2 mm 1 mps 756 mmHg 62%
    11:00 +36°C° 0.2 mm 2 mps 756 mmHg 63%
    12:00 +36°C° 0.2 mm 2 mps 755 mmHg 63%
    13:00 +35°C° 0.9 mm 2 mps 755 mmHg 69%
    14:00 +34°C° 0.9 mm 2 mps 754 mmHg 75%
    15:00 +32°C° 0.9 mm 2 mps 754 mmHg 80%
    16:00 +31°C° 1.5 mm 2 mps 754 mmHg 84%
    17:00 +30°C° 1.5 mm 1 mps 755 mmHg 87%
    18:00 +29°C° 1.5 mm 1 mps 755 mmHg 90%
    19:00 +29°C° 1.6 mm 1 mps 756 mmHg 91%
    20:00 +28°C° 1.6 mm 2 mps 756 mmHg 91%
    21:00 +28°C° 1.6 mm 2 mps 757 mmHg 91%
    22:00 +28°C° 0.9 mm 2 mps 756 mmHg 91%
    23:00 +28°C° 0.9 mm 2 mps 756 mmHg 91%

    27 May, Sunday

    Time Temperature Precipitation Wind Pressure Humidity
    00:00 +28°C° 0.9 mm 2 mps 756 mmHg 91%
    01:00 +28°C° 0.5 mm 2 mps 756 mmHg 90%
    02:00 +28°C° 0.5 mm 2 mps 755 mmHg 89%
    03:00 +28°C° 0.5 mm 2 mps 755 mmHg 89%
    04:00 +28°C° 0.8 mm 2 mps 755 mmHg 89%
    05:00 +28°C° 0.8 mm 2 mps 756 mmHg 89%
    06:00 +28°C° 0.8 mm 2 mps 756 mmHg 89%
    07:00 +28°C° 0.8 mm 2 mps 756 mmHg 86%
    08:00 +29°C° 0.8 mm 2 mps 757 mmHg 84%
    09:00 +30°C° 0.8 mm 2 mps 757 mmHg 82%
    10:00 +30°C° 0.5 mm 2 mps 757 mmHg 79%
    11:00 +31°C° 0.5 mm 2 mps 756 mmHg 77%
    12:00 +31°C° 0.5 mm 2 mps 756 mmHg 75%
    13:00 +32°C° 0.4 mm 1 mps 755 mmHg 74%
    14:00 +32°C° 0.4 mm 1 mps 755 mmHg 73%
    15:00 +32°C° 0.4 mm 1 mps 755 mmHg 71%
    16:00 +31°C° 0.5 mm 1 mps 755 mmHg 76%
    17:00 +30°C° 0.5 mm 2 mps 756 mmHg 80%
    18:00 +29°C° 0.5 mm 2 mps 756 mmHg 85%
    19:00 +28°C° 0.9 mm 2 mps 756 mmHg 86%
    20:00 +28°C° 0.9 mm 2 mps 757 mmHg 88%
    21:00 +28°C° 0.9 mm 2 mps 757 mmHg 89%
    22:00 +28°C° 0.9 mm 2 mps 757 mmHg 89%
    23:00 +27°C° 0.9 mm 2 mps 757 mmHg 89%
    Show more